HODOYOSHI-3

Last updated on Fri Jul 10 2026 00:02:49 GMT+0000 (Coordinated Universal Time)

1 40015U 14033F 26189.94320886 .00000629 00000+0 78533-4 0 9993 2 40015 97.6439 352.1110 0031325 283.5087 76.2639 14.85429279650858
UTC large
Height (km)
Speed (km/s)
/
Latitude / Longitude
Inclination (degrees)
Orbital Period (minutes)
Azimuth
Elevation
Range (km)
Doppler Factor

Next 0 passes for location: London (51.5072 / 0.1276)

No passes found over London.
HODOYOSHI-3